Location: Budapest
(47.4979°N, 19.0402°E)
Time: 11:03:51
(UTC+02:00)

Vanguard 3 - Visible Passes

Search period start: 20 October 2017 00:00
Search period end: 29 October 2017 23:00
Orbit: 510 x 3263 km, 33.3° (Epoch: 19 October)

Date Brightness Start Highest point End Pass type
(mag) Time Alt. Az. Time Alt. Az. Time Alt. Az.
20 Oct 10.5 03:37:49 17° S 03:42:03 20° SSE 03:48:56 10° ESE visible
20 Oct 9.7 05:44:45 10° SW 05:54:36 29° S 06:00:55 10° ESE visible
21 Oct 10.8 02:28:27 15° SE 02:28:27 15° SE 02:33:47 10° ESE visible
21 Oct 10.0 04:33:03 17° SSW 04:40:29 28° SSE 04:47:54 10° ESE visible
22 Oct 10.4 03:23:36 23° S 03:26:01 24° SSE 03:34:16 10° ESE visible
22 Oct 9.7 05:28:12 12° SW 05:38:48 33° S 05:45:55 10° ESE visible
23 Oct 10.7 02:14:07 18° SE 02:14:07 18° SE 02:19:36 10° ESE visible
23 Oct 9.9 04:18:42 24° SSW 04:24:30 32° SSE 04:32:53 10° ESE visible
23 Oct 9.5 06:26:24 10° WSW 06:36:54 33° S 06:43:24 10° SE visible
24 Oct 10.3 03:09:08 29° SSE 03:09:50 29° SSE 03:19:18 10° ESE visible
24 Oct 9.7 05:13:43 18° SW 05:22:54 37° S 05:30:48 10° ESE visible
25 Oct 10.7 01:59:32 20° SE 01:59:32 20° SE 02:04:49 10° ESE visible
25 Oct 9.9 04:04:07 31° SSW 04:08:24 36° S 04:17:44 10° ESE visible
25 Oct 9.5 06:09:21 10° WSW 06:21:03 36° S 06:28:12 10° SE visible
26 Oct 10.2 02:54:28 33° SSE 02:54:28 33° SSE 03:04:07 10° ESE visible
26 Oct 9.7 04:59:03 24° SW 05:06:52 40° S 05:15:34 10° ESE visible
27 Oct 10.7 01:44:47 21° ESE 01:44:47 21° ESE 01:49:42 10° ESE visible
27 Oct 9.9 03:49:22 38° SSW 03:52:10 40° S 04:02:27 10° ESE visible
27 Oct 9.6 05:53:56 14° WSW 06:05:05 38° SSW 06:12:56 10° SE visible
28 Oct 10.2 02:39:38 35° SE 02:39:38 35° SE 02:48:45 10° ESE visible
28 Oct 9.7 04:44:13 30° SW 04:50:43 43° S 05:00:15 10° ESE visible
29 Oct 10.8 01:29:54 21° ESE 01:29:54 21° ESE 01:34:19 10° E visible
29 Oct 9.9 02:34:28 43° S 02:35:48 43° S 02:47:02 10° ESE visible
29 Oct 9.7 04:39:03 18° WSW 04:48:59 39° SSW 04:57:35 10° SE visible
